Weather reports worldwide

Advertisment
Northolt, United Kingdom (3672): temperature & dewpoint: 14.06.2019 13:00:00 - 20.06.2019 13:00:00 (BST)Northolt, United Kingdom (3672): temperature -20cm & temperature -100cm: 14.06.2019 13:00:00 - 20.06.2019 13:00:00 (BST)Northolt, United Kingdom (3672): wind speed & gusts: 14.06.2019 13:00:00 - 20.06.2019 13:00:00 (BST)Northolt, United Kingdom (3672): wind direction: 14.06.2019 13:00:00 - 20.06.2019 13:00:00 (BST)Northolt, United Kingdom (3672): reduced air pressure: 14.06.2019 13:00:00 - 20.06.2019 13:00:00 (BST)Northolt, United Kingdom (3672): visibility: 14.06.2019 13:00:00 - 20.06.2019 13:00:00 (BST)Northolt, United Kingdom (3672): precipitation: 14.06.2019 13:00:00 - 20.06.2019 13:00:00 (BST)
Date & Time tt [°C] td [°C] tt -20cm [°C] tt -100cm [°C] ff [km/h] ff [kn] fx [km/h] fx [kn] dd ppp [hPa] vv [km] rr [mm]
20.06.2019 13:00:00 18,4 9,2 - - 21 11 - - W 1012,7 10 0,0
20.06.2019 12:00:00 17,3 10,0 - - 22 12 - - W 1012,7 10 0,0
20.06.2019 11:00:00 17,2 10,0 - - 22 12 - - W 1012,2 10 0,0
20.06.2019 10:00:00 16,7 11,0 16,7 14,4 16 9 - - W 1012,0 10 0,0
20.06.2019 09:00:00 15,8 10,2 - - 21 11 - - WNW 1011,9 10 0,0
20.06.2019 08:00:00 14,4 10,6 - - 16 9 - - W 1011,6 10 0,0
20.06.2019 07:00:00 13,2 9,8 - - 13 7 - - W 1011,2 10 0,0
20.06.2019 06:00:00 12,8 11,0 - - 8 4 - - W 1010,8 25 0,0
20.06.2019 05:00:00 13,5 11,5 - - 11 6 - - W 1010,4 24 0,0
20.06.2019 04:00:00 14,0 11,9 - - 13 7 - - WNW 1009,9 10 0,0
20.06.2019 03:00:00 14,5 12,6 - - 11 6 - - W 1009,7 21 0,0
20.06.2019 02:00:00 14,9 13,4 - - 9 5 - - W 1009,6 10 0,0
20.06.2019 01:00:00 15,1 13,8 - - 8 4 - - WSW 1009,7 16 0,0
20.06.2019 00:00:00 15,7 13,2 - - 9 5 - - W 1009,5 10 0,0
19.06.2019 23:00:00 15,9 13,8 - - 9 5 - - WSW 1009,2 10 0,0
19.06.2019 22:00:00 16,7 13,9 - - 9 5 - - W 1008,8 10 0,0
19.06.2019 21:00:00 17,1 14,8 - - 8 4 - - WSW 1008,4 10 0,0
19.06.2019 20:00:00 17,6 14,7 - - 8 4 - - W 1008,0 10 0,0
19.06.2019 19:00:00 18,2 14,4 - - 11 6 - - W 1007,8 10 0,0
19.06.2019 18:00:00 18,1 15,9 - - 4 2 - - NNW 1007,6 10 1,0
19.06.2019 17:00:00 17,6 16,1 - - 13 7 - - SSW 1007,6 10 0,4
19.06.2019 16:00:00 17,2 16,5 - - 11 6 - - SW 1007,8 8 4,4
19.06.2019 15:00:00 17,7 14,7 - - 8 4 - - WNW 1007,8 7 0,2
19.06.2019 14:00:00 19,2 13,9 - - 4 2 - - SW 1007,6 10 0,0
19.06.2019 13:00:00 18,2 13,6 - - 8 4 - - NW 1007,8 10 0,0
19.06.2019 12:00:00 18,4 13,5 - - 11 6 - - NNW 1007,5 10 0,0
19.06.2019 11:00:00 17,1 13,8 - - 9 5 - - NW 1007,6 10 0,0
19.06.2019 10:00:00 16,2 12,9 16,2 14,2 9 5 - - NW 1007,5 10 0,0
19.06.2019 09:00:00 15,3 13,1 - - 4 2 - - NNW 1007,5 10 0,0
19.06.2019 08:00:00 14,9 12,9 - - 5 3 - - NNE 1007,3 10 0,0
19.06.2019 07:00:00 14,6 13,2 - - 2 1 - - S 1007,1 10 0,0
19.06.2019 06:00:00 14,0 12,9 - - 8 4 - - N 1006,7 14 0,0
19.06.2019 05:00:00 14,2 13,3 - - 5 3 - - N 1007,2 9 0,0
19.06.2019 04:00:00 14,3 13,0 - - 8 4 - - ENE 1007,8 15 0,0
19.06.2019 03:00:00 14,6 13,6 - - 8 4 - - NE 1008,0 10 0,0
19.06.2019 02:00:00 15,3 14,1 - - 9 5 - - NE 1008,5 10 0,0
19.06.2019 01:00:00 15,4 14,5 - - 8 4 - - ENE 1009,7 10 0,0
19.06.2019 00:00:00 15,5 14,4 - - 5 3 - - NNE 1009,6 7 0,2
18.06.2019 23:00:00 15,8 14,4 - - 9 5 - - NE 1010,4 10 0,0
18.06.2019 22:00:00 15,8 14,5 - - 9 5 - - ENE 1011,0 10 0,0
18.06.2019 21:00:00 16,1 14,8 - - 8 4 - - N 1011,2 10 0,0
18.06.2019 20:00:00 16,3 15,3 - - 11 6 - - N 1011,5 9 0,0
18.06.2019 19:00:00 16,7 14,8 - - 15 8 - - ENE 1011,2 10 0,0
18.06.2019 18:00:00 16,5 15,1 - - 9 5 - - N 1012,0 10 1,0
18.06.2019 17:00:00 16,7 14,8 - - 5 3 - - SW 1013,0 6 1,4
18.06.2019 16:00:00 17,7 13,7 - - 5 3 - - E 1012,8 10 0,2
18.06.2019 15:00:00 18,2 13,0 - - 8 4 - - ESE 1013,2 10 0,2
18.06.2019 14:00:00 18,5 12,3 - - 5 3 - - SSE 1014,1 30 0,0
18.06.2019 13:00:00 18,3 12,2 - - 9 5 - - S 1014,4 10 0,0
18.06.2019 12:00:00 18,9 10,7 - - 9 5 - - SW 1014,8 10 0,0
18.06.2019 11:00:00 18,6 10,3 - - 11 6 - - WSW 1015,0 10 0,0
18.06.2019 10:00:00 18,3 10,6 16,0 14,2 8 4 - - W 1014,9 10 0,0
18.06.2019 09:00:00 16,0 10,4 - - 4 2 - - SSW 1015,5 10 0,0
18.06.2019 08:00:00 14,2 10,8 - - 2 1 - - W 1015,6 10 0,0
18.06.2019 07:00:00 12,9 10,3 - - 4 2 - - SSE 1015,8 10 0,0
18.06.2019 06:00:00 10,7 8,9 - - 2 1 - - WNW 1015,8 27 0,0
18.06.2019 05:00:00 10,5 9,5 - - 4 2 - - S 1015,6 24 0,0
18.06.2019 04:00:00 10,7 9,1 - - 2 1 - - WSW 1015,6 23 0,0
18.06.2019 03:00:00 11,5 9,2 - - 2 1 - - SW 1016,1 10 0,0
18.06.2019 02:00:00 11,7 9,2 - - 5 3 - - SSW 1016,4 10 0,0
18.06.2019 01:00:00 12,2 9,1 - - 8 4 - - SW 1016,8 30 0,0
18.06.2019 00:00:00 13,6 9,4 - - 11 6 - - WSW 1016,9 10 0,0
17.06.2019 23:00:00 14,3 9,3 - - 11 6 - - WSW 1017,0 10 0,0
17.06.2019 22:00:00 15,5 9,1 - - 11 6 - - SW 1016,8 10 0,0
17.06.2019 21:00:00 16,7 8,9 - - 13 7 - - WSW 1016,3 35 0,0
17.06.2019 20:00:00 18,1 8,9 - - 18 10 - - WSW 1016,3 35 0,0
17.06.2019 19:00:00 18,7 8,9 - - 16 9 - - SW 1016,2 40 0,0
17.06.2019 18:00:00 20,4 9,2 - - 22 12 - - SW 1016,2 10 0,0
17.06.2019 17:00:00 20,3 9,7 - - 18 10 - - SW 1016,4 10 0,0
17.06.2019 16:00:00 20,5 8,9 - - 22 12 - - SW 1016,6 10 0,0
17.06.2019 15:00:00 20,8 9,2 - - 18 10 - - SW 1016,9 10 0,0
17.06.2019 14:00:00 20,2 9,9 - - 21 11 - - WSW 1017,2 10 0,0
17.06.2019 13:00:00 19,6 8,1 - - 24 13 - - SW 1017,6 10 0,0
17.06.2019 12:00:00 19,6 9,7 - - 22 12 - - SW 1017,7 10 0,0
17.06.2019 11:00:00 18,1 9,5 - - 22 12 - - SW 1018,1 35 0,0
17.06.2019 10:00:00 17,0 9,5 15,7 14,2 21 11 - - SW 1018,3 10 0,0
17.06.2019 09:00:00 16,4 10,6 - - 18 10 - - SW 1018,4 10 0,0
17.06.2019 08:00:00 15,1 11,1 - - 15 8 - - SSW 1018,5 10 0,0
17.06.2019 07:00:00 13,9 11,2 - - 15 8 - - SSW 1018,1 10 0,0
17.06.2019 06:00:00 12,4 10,8 - - 11 6 - - S 1018,0 23 0,0
17.06.2019 05:00:00 11,6 10,0 - - 9 5 - - S 1017,9 24 0,0
17.06.2019 04:00:00 12,2 10,3 - - 11 6 - - SSW 1017,9 10 0,0
17.06.2019 03:00:00 12,7 10,3 - - 13 7 - - SSW 1017,9 30 0,0
17.06.2019 02:00:00 12,9 10,1 - - 13 7 - - SW 1018,2 10 0,0
17.06.2019 01:00:00 14,0 10,2 - - 15 8 - - SSW 1018,4 30 0,0
17.06.2019 00:00:00 14,1 10,0 - - 16 9 - - SSW 1018,3 10 0,0
16.06.2019 23:00:00 14,5 10,0 - - 16 9 - - SSW 1018,4 10 0,0
16.06.2019 22:00:00 15,7 10,0 - - 18 10 - - SSW 1018,3 10 0,0
16.06.2019 21:00:00 16,5 9,4 - - 24 13 - - SW 1017,9 35 0,0
16.06.2019 20:00:00 17,3 10,0 - - 22 12 - - SW 1017,6 10 0,0
16.06.2019 19:00:00 18,9 11,2 - - 26 14 - - SW 1017,4 10 0,0
16.06.2019 18:00:00 18,2 11,3 - - 29 16 46 25 SW 1017,1 10 0,0
16.06.2019 17:00:00 18,3 11,4 - - 28 15 - - SW 1017,1 10 0,0
16.06.2019 16:00:00 18,8 11,6 - - 28 15 52 28 SW 1016,8 10 0,0
16.06.2019 15:00:00 19,7 12,0 - - 29 16 - - SW 1016,4 10 0,0
16.06.2019 14:00:00 20,1 11,4 - - 29 16 48 26 SW 1016,1 10 0,0
16.06.2019 13:00:00 19,5 11,9 - - 28 15 - - SW 1016,1 10 0,0
16.06.2019 12:00:00 17,9 13,7 - - 22 12 - - SSW 1015,8 10 0,0
16.06.2019 11:00:00 15,1 13,6 - - 18 10 - - SSW 1016,2 10 0,2
16.06.2019 10:00:00 14,5 12,9 15,4 14,2 21 11 - - SSW 1016,0 25 0,2
16.06.2019 09:00:00 14,1 12,4 - - 13 7 - - SSW 1016,2 10 0,0
16.06.2019 08:00:00 13,8 11,8 - - 13 7 - - S 1015,9 10 0,0
16.06.2019 07:00:00 12,2 11,2 - - 11 6 - - S 1015,8 10 0,0
16.06.2019 06:00:00 9,2 9,0 - - 5 3 - - SE 1015,6 8 0,0
16.06.2019 05:00:00 8,4 7,9 - - 8 4 - - SE 1015,6 8 0,0
16.06.2019 04:00:00 9,3 8,8 - - 5 3 - - SSW 1015,4 12 0,0
16.06.2019 03:00:00 10,1 9,2 - - 9 5 - - SSW 1015,5 17 0,0
16.06.2019 02:00:00 10,6 9,6 - - 9 5 - - SW 1015,2 10 0,0
16.06.2019 01:00:00 11,2 9,5 - - 9 5 - - WSW 1015,1 10 0,0
16.06.2019 00:00:00 12,3 10,4 - - 11 6 - - SW 1014,7 30 0,0
15.06.2019 23:00:00 13,0 10,6 - - 13 7 - - SW 1014,2 10 0,0
15.06.2019 22:00:00 13,2 11,3 - - 11 6 - - SSW 1013,8 30 0,0
15.06.2019 21:00:00 14,4 12,3 - - 16 9 - - SSW 1013,3 10 0,0
15.06.2019 20:00:00 15,3 11,8 - - 18 10 - - SSW 1013,1 30 0,0
15.06.2019 19:00:00 15,3 12,1 - - 21 11 - - S 1013,0 10 0,0
15.06.2019 18:00:00 17,2 11,2 - - 21 11 - - SSW 1012,5 10 0,0
15.06.2019 17:00:00 18,7 11,9 - - 26 14 - - SSW 1012,6 10 0,0
15.06.2019 16:00:00 16,7 12,1 - - 26 14 - - SSW 1012,9 10 0,0
15.06.2019 15:00:00 17,2 11,7 - - 22 12 - - S 1012,9 30 0,0
15.06.2019 14:00:00 16,3 9,4 - - 24 13 - - SSW 1013,0 10 0,0
15.06.2019 13:00:00 17,0 9,2 - - 22 12 - - SW 1012,7 10 0,0
15.06.2019 12:00:00 17,4 9,0 - - 18 10 - - SW 1012,3 10 0,0
15.06.2019 11:00:00 17,4 9,1 - - 22 12 - - SSW 1012,0 10 0,0
15.06.2019 10:00:00 16,9 10,7 15,4 14,2 18 10 - - SSW 1012,3 10 0,0
15.06.2019 09:00:00 16,4 11,2 - - 15 8 - - SSW 1012,2 10 0,0
15.06.2019 08:00:00 14,8 10,5 - - 13 7 - - SSW 1012,3 10 0,0
15.06.2019 07:00:00 13,1 10,9 - - 8 4 - - S 1012,2 30 0,0
15.06.2019 06:00:00 11,2 9,9 - - 4 2 - - SSW 1012,3 27 0,0
15.06.2019 05:00:00 11,3 9,9 - - 5 3 - - S 1012,2 10 0,0
15.06.2019 04:00:00 11,3 9,8 - - 5 3 - - SW 1011,9 30 0,0
15.06.2019 03:00:00 11,7 9,7 - - 4 2 - - SW 1012,0 30 0,0
15.06.2019 02:00:00 12,3 9,7 - - 8 4 - - S 1012,3 10 0,0
15.06.2019 01:00:00 12,4 9,7 - - 8 4 - - S 1012,5 35 0,0
15.06.2019 00:00:00 13,1 9,7 - - 5 3 - - S 1012,2 30 0,0
14.06.2019 23:00:00 13,2 9,9 - - 9 5 - - S 1012,3 30 0,0
14.06.2019 22:00:00 15,0 9,3 - - 11 6 - - S 1011,9 10 0,0
14.06.2019 21:00:00 15,6 8,5 - - 16 9 - - SW 1011,5 10 0,0
14.06.2019 20:00:00 16,6 8,8 - - 18 10 - - SW 1011,1 10 0,0
14.06.2019 19:00:00 17,0 9,6 - - 18 10 - - SSW 1011,1 10 0,0
14.06.2019 18:00:00 17,9 9,5 - - 21 11 - - SSW 1010,7 10 0,0
14.06.2019 17:00:00 18,0 10,3 - - 22 12 - - SSW 1010,8 10 0,0
14.06.2019 16:00:00 18,3 11,1 - - 26 14 - - SSW 1010,6 10 0,0
14.06.2019 15:00:00 17,4 10,4 - - 26 14 - - SSW 1010,8 10 0,0
14.06.2019 14:00:00 18,0 11,0 - - 22 12 - - SW 1010,4 10 0,0
14.06.2019 13:00:00 16,6 11,5 - - 24 13 46 25 SSW 1010,4 10 0,0

tt = temperature
td = dewpoint
tt -20cm = temperature -20cm
tt -100cm = temperature -100cm
ff = wind speed
fx = gusts
dd = wind direction
ppp = reduced air pressure
vv = visibility
rr = precipitation

Next stations